User: anonymous   Login
Location: Caltech
(34.1382°N, 118.1253°W)
Time: 18:24:04
(UTC-07:00)
Language:

Cosmos 1606 - Orbit

View from above orbital plane
View from above orbital plane
View from above satellite
View from above satellite

Ground track
Ground track

The orbit data is extracted from the following two-line orbital elements,

1 15369U 84111A   15215.75410987  .00002322  00000-0  12722-3 0  9990
2 15369 082.5271 074.0151 0020504 103.6593 256.6923 15.13552978677006
Epoch (UTC): 03 August 2015 18:05:55
Eccentricity: 0.0020504
inclination: 82.5271°
perigee height: 511 km
apogee height: 539 km
right ascension of ascending node: 74.0151°
argument of perigee: 103.6593°
revolutions per day: 15.13552978
mean anomaly at epoch: 256.6923°
orbit number at epoch: 67700

The dashed part of the orbit path shows where the satellite is in the earth's shadow,  

DLR